SL-6 R/B(2)

Last updated on Thu Oct 30 2025 00:02:15 GMT+0000 (Coordinated Universal Time)

1 20666U 90055D 25302.52138522 .00002924 00000+0 23205-3 0 9990 2 20666 62.7848 339.6263 0010684 268.3949 91.5926 15.02748669918478
UTC large
Height (km)
Speed (km/s)
/
Latitude / Longitude
Inclination (degrees)
Orbital Period (minutes)
Azimuth
Elevation
Range (km)
Doppler Factor

Next 0 passes for location: London (51.5072 / 0.1276)

Sorry there are no passes over London.